date,time,press
2015-01-01,00:00,893.31
2015-01-01,01:00,869.44
2015-01-01,02:00,882.46
2015-01-01,03:00,884.63
2015-01-01,04:00,906.33
2015-01-01,05:00,909.59
2015-01-01,06:00,918.27
2015-01-01,07:00,916.1
2015-01-01,08:00,860.76
2015-01-01,09:00,-999
2015-01-01,10:00,-999
2015-01-01,11:00,-999
2015-01-01,12:00,-999
2015-01-01,13:00,-999
2015-01-01,14:00,-999
2015-01-01,15:00,-999
2015-01-01,16:00,-999
2015-01-01,17:00,-999
2015-01-01,18:00,-999
2015-01-01,19:00,868.35
2015-01-01,20:00,904.16
2015-01-01,21:00,919.35
2015-01-01,22:00,925.86
2015-01-01,23:00,904.16
2015-01-02,00:00,867.27
2015-01-02,01:00,888.97
2015-01-02,02:00,904.16
2015-01-02,03:00,869.44
2015-01-02,04:00,864.01
2015-01-02,05:00,882.46
2015-01-02,06:00,898.74
2015-01-02,07:00,909.59
2015-01-02,08:00,908.5
2015-01-02,09:00,-999
2015-01-02,10:00,-999
2015-01-02,11:00,-999
2015-01-02,12:00,-999
2015-01-02,13:00,-999
2015-01-02,14:00,-999
2015-01-02,15:00,-999
2015-01-02,16:00,-999
2015-01-02,17:00,-999
2015-01-02,18:00,-999
2015-01-02,19:00,-999
2015-01-02,20:00,882.46
2015-01-02,21:00,897.65
2015-01-02,22:00,907.42
2015-01-02,23:00,923.69
2015-01-03,00:00,922.61
2015-01-03,01:00,918.27
2015-01-03,02:00,916.1
2015-01-03,03:00,916.1
2015-01-03,04:00,922.61
2015-01-03,05:00,924.78
2015-01-03,06:00,924.78
2015-01-03,07:00,924.78
2015-01-03,08:00,920.44
2015-01-03,09:00,893.31
2015-01-03,10:00,-999
2015-01-03,11:00,-999
2015-01-03,12:00,-999
2015-01-03,13:00,-999
2015-01-03,14:00,-999
2015-01-03,15:00,-999
2015-01-03,16:00,-999
2015-01-03,17:00,-999
2015-01-03,18:00,-999
2015-01-03,19:00,-999
2015-01-03,20:00,866.18
2015-01-03,21:00,900.91
2015-01-03,22:00,911.76
2015-01-03,23:00,913.93
2015-01-04,00:00,-999
2015-01-04,01:00,912.84
2015-01-04,02:00,913.93
2015-01-04,03:00,919.35
2015-01-04,04:00,920.44
2015-01-04,05:00,923.69
2015-01-04,06:00,921.52
2015-01-04,07:00,923.69
2015-01-04,08:00,917.18
2015-01-04,09:00,900.91
2015-01-04,10:00,-999
2015-01-04,11:00,-999
2015-01-04,12:00,-999
2015-01-04,13:00,-999
2015-01-04,14:00,-999
2015-01-04,15:00,-999
2015-01-04,16:00,-999
2015-01-04,17:00,-999
2015-01-04,18:00,-999
2015-01-04,19:00,-999
2015-01-04,20:00,890.06
2015-01-04,21:00,907.42
2015-01-04,22:00,917.18
2015-01-04,23:00,923.69
2015-01-05,00:00,925.86
2015-01-05,01:00,925.86
2015-01-05,02:00,925.86
2015-01-05,03:00,926.95
2015-01-05,04:00,924.78
2015-01-05,05:00,924.78
2015-01-05,06:00,925.86
2015-01-05,07:00,930.2
2015-01-05,08:00,928.03
2015-01-05,09:00,895.48
2015-01-05,10:00,874.86
2015-01-05,11:00,-999
2015-01-05,12:00,-999
2015-01-05,13:00,-999
2015-01-05,14:00,-999
2015-01-05,15:00,-999
2015-01-05,16:00,-999
2015-01-05,17:00,-999
2015-01-05,18:00,-999
2015-01-05,19:00,857.5
2015-01-05,20:00,-999
2015-01-05,21:00,879.2
2015-01-05,22:00,905.25
2015-01-05,23:00,913.93
2015-01-06,00:00,-999
2015-01-06,01:00,911.76
2015-01-06,02:00,924.78
2015-01-06,03:00,928.03
2015-01-06,04:00,928.03
2015-01-06,05:00,929.12
2015-01-06,06:00,925.86
2015-01-06,07:00,928.03
2015-01-06,08:00,915.01
2015-01-06,09:00,893.31
2015-01-06,10:00,879.2
2015-01-06,11:00,-999
2015-01-06,12:00,-999
2015-01-06,13:00,-999
2015-01-06,14:00,-999
2015-01-06,15:00,-999
2015-01-06,16:00,-999
2015-01-06,17:00,-999
2015-01-06,18:00,-999
2015-01-06,19:00,879.2
2015-01-06,20:00,886.8
2015-01-06,21:00,912.84
2015-01-06,22:00,922.61
2015-01-06,23:00,925.86
2015-01-07,00:00,925.86
2015-01-07,01:00,926.95
2015-01-07,02:00,925.86
2015-01-07,03:00,923.69
2015-01-07,04:00,924.78
2015-01-07,05:00,925.86
2015-01-07,06:00,924.78
2015-01-07,07:00,928.03
2015-01-07,08:00,930.2
2015-01-07,09:00,917.18
2015-01-07,10:00,888.97
2015-01-07,11:00,860.76
2015-01-07,12:00,-999
2015-01-07,13:00,-999
2015-01-07,14:00,-999
2015-01-07,15:00,-999
2015-01-07,16:00,-999
2015-01-07,17:00,-999
2015-01-07,18:00,867.27
2015-01-07,19:00,898.74
2015-01-07,20:00,903.08
2015-01-07,21:00,915.01
2015-01-07,22:00,924.78
2015-01-07,23:00,912.84
2015-01-08,00:00,916.1
2015-01-08,01:00,911.76
2015-01-08,02:00,904.16
2015-01-08,03:00,915.01
2015-01-08,04:00,920.44
2015-01-08,05:00,922.61
2015-01-08,06:00,924.78
2015-01-08,07:00,930.2
2015-01-08,08:00,923.69
2015-01-08,09:00,917.18
2015-01-08,10:00,903.08
2015-01-08,11:00,886.8
2015-01-08,12:00,869.44
2015-01-08,13:00,-999
2015-01-08,14:00,-999
2015-01-08,15:00,-999
2015-01-08,16:00,852.08
2015-01-08,17:00,881.37
2015-01-08,18:00,894.4
2015-01-08,19:00,893.31
2015-01-08,20:00,903.08
2015-01-08,21:00,917.18
2015-01-08,22:00,925.86
2015-01-08,23:00,928.03
2015-01-09,00:00,929.12
2015-01-09,01:00,930.2
2015-01-09,02:00,929.12
2015-01-09,03:00,931.29
2015-01-09,04:00,931.29
2015-01-09,05:00,932.37
2015-01-09,06:00,933.46
2015-01-09,07:00,933.46
2015-01-09,08:00,933.46
2015-01-09,09:00,929.12
2015-01-09,10:00,920.44
2015-01-09,11:00,921.52
2015-01-09,12:00,915.01
2015-01-09,13:00,908.5
2015-01-09,14:00,904.16
2015-01-09,15:00,897.65
2015-01-09,16:00,887.89
2015-01-09,17:00,908.5
2015-01-09,18:00,918.27
2015-01-09,19:00,925.86
2015-01-09,20:00,925.86
2015-01-09,21:00,928.03
2015-01-09,22:00,925.86
2015-01-09,23:00,925.86
2015-01-10,00:00,926.95
2015-01-10,01:00,926.95
2015-01-10,02:00,926.95
2015-01-10,03:00,925.86
2015-01-10,04:00,924.78
2015-01-10,05:00,926.95
2015-01-10,06:00,930.2
2015-01-10,07:00,957.33
2015-01-10,08:00,964.93
2015-01-10,09:00,979.03
2015-01-10,10:00,997.48
2015-01-10,11:00,1005.07
2015-01-10,12:00,1005.07
2015-01-10,13:00,1005.07
2015-01-10,14:00,1006.16
2015-01-10,15:00,1010.5
2015-01-10,16:00,1003.99
2015-01-10,17:00,-999
2015-01-10,18:00,1001.82
2015-01-10,19:00,1000.73
2015-01-10,20:00,998.56
2015-01-10,21:00,998.56
2015-01-10,22:00,998.56
2015-01-10,23:00,994.22
2015-01-11,00:00,997.48
2015-01-11,01:00,990.97
2015-01-11,02:00,993.14
2015-01-11,03:00,994.22
2015-01-11,04:00,995.31
2015-01-11,05:00,995.31
2015-01-11,06:00,995.31
2015-01-11,07:00,995.31
2015-01-11,08:00,993.14
2015-01-11,09:00,996.39
2015-01-11,10:00,1001.82
2015-01-11,11:00,1008.33
2015-01-11,12:00,1000.73
2015-01-11,13:00,971.44
2015-01-11,14:00,952.99
2015-01-11,15:00,949.73
2015-01-11,16:00,950.82
2015-01-11,17:00,951.9
2015-01-11,18:00,957.33
2015-01-11,19:00,961.67
2015-01-11,20:00,962.75
2015-01-11,21:00,964.93
2015-01-11,22:00,967.1
2015-01-11,23:00,968.18
2015-01-12,00:00,968.18
2015-01-12,01:00,968.18
2015-01-12,02:00,970.35
2015-01-12,03:00,966.01
2015-01-12,04:00,961.67
2015-01-12,05:00,961.67
2015-01-12,06:00,963.84
2015-01-12,07:00,964.93
2015-01-12,08:00,963.84
2015-01-12,09:00,959.5
2015-01-12,10:00,952.99
2015-01-12,11:00,948.65
2015-01-12,12:00,939.97
2015-01-12,13:00,930.2
2015-01-12,14:00,911.76
2015-01-12,15:00,898.74
2015-01-12,16:00,905.25
2015-01-12,17:00,920.44
2015-01-12,18:00,938.88
2015-01-12,19:00,934.54
2015-01-12,20:00,936.71
2015-01-12,21:00,939.97
2015-01-12,22:00,957.33
2015-01-12,23:00,958.41
2015-01-13,00:00,963.84
2015-01-13,01:00,970.35
2015-01-13,02:00,966.01
2015-01-13,03:00,961.67
2015-01-13,04:00,961.67
2015-01-13,05:00,964.93
2015-01-13,06:00,968.18
2015-01-13,07:00,966.01
2015-01-13,08:00,960.58
2015-01-13,09:00,946.48
2015-01-13,10:00,929.12
2015-01-13,11:00,917.18
2015-01-13,12:00,905.25
2015-01-13,13:00,894.4
2015-01-13,14:00,880.29
2015-01-13,15:00,869.44
2015-01-13,16:00,882.46
2015-01-13,17:00,895.48
2015-01-13,18:00,925.86
2015-01-13,19:00,932.37
2015-01-13,20:00,938.88
2015-01-13,21:00,937.8
2015-01-13,22:00,941.05
2015-01-13,23:00,946.48
2015-01-14,00:00,948.65
2015-01-14,01:00,947.56
2015-01-14,02:00,948.65
2015-01-14,03:00,949.73
2015-01-14,04:00,950.82
2015-01-14,05:00,954.07
2015-01-14,06:00,951.9
2015-01-14,07:00,955.16
2015-01-14,08:00,951.9
2015-01-14,09:00,946.48
2015-01-14,10:00,937.8
2015-01-14,11:00,916.1
2015-01-14,12:00,896.57
2015-01-14,13:00,865.1
2015-01-14,14:00,870.52
2015-01-14,15:00,861.84
2015-01-14,16:00,852.08
2015-01-14,17:00,862.93
2015-01-14,18:00,908.5
2015-01-14,19:00,926.95
2015-01-14,20:00,931.29
2015-01-14,21:00,937.8
2015-01-14,22:00,938.88
2015-01-14,23:00,941.05
2015-01-15,00:00,939.97
2015-01-15,01:00,937.8
2015-01-15,02:00,939.97
2015-01-15,03:00,939.97
2015-01-15,04:00,943.22
2015-01-15,05:00,946.48
2015-01-15,06:00,947.56
2015-01-15,07:00,949.73
2015-01-15,08:00,949.73
2015-01-15,09:00,933.46
2015-01-15,10:00,913.93
2015-01-15,11:00,896.57
2015-01-15,12:00,871.61
2015-01-15,13:00,-999
2015-01-15,14:00,-999
2015-01-15,15:00,-999
2015-01-15,16:00,-999
2015-01-15,17:00,-999
2015-01-15,18:00,888.97
2015-01-15,19:00,901.99
2015-01-15,20:00,933.46
2015-01-15,21:00,932.37
2015-01-15,22:00,932.37
2015-01-15,23:00,936.71
2015-01-16,00:00,-999
2015-01-16,01:00,939.97
2015-01-16,02:00,939.97
2015-01-16,03:00,937.8
2015-01-16,04:00,939.97
2015-01-16,05:00,941.05
2015-01-16,06:00,942.14
2015-01-16,07:00,945.39
2015-01-16,08:00,950.82
2015-01-16,09:00,933.46
2015-01-16,10:00,922.61
2015-01-16,11:00,894.4
2015-01-16,12:00,877.03
2015-01-16,13:00,865.1
2015-01-16,14:00,-999
2015-01-16,15:00,-999
2015-01-16,16:00,-999
2015-01-16,17:00,858.59
2015-01-16,18:00,903.08
2015-01-16,19:00,905.25
2015-01-16,20:00,929.12
2015-01-16,21:00,933.46
2015-01-16,22:00,934.54
2015-01-16,23:00,934.54
2015-01-17,00:00,932.37
2015-01-17,01:00,933.46
2015-01-17,02:00,934.54
2015-01-17,03:00,933.46
2015-01-17,04:00,923.69
2015-01-17,05:00,931.29
2015-01-17,06:00,936.71
2015-01-17,07:00,937.8
2015-01-17,08:00,937.8
2015-01-17,09:00,924.78
2015-01-17,10:00,907.42
2015-01-17,11:00,880.29
2015-01-17,12:00,852.08
2015-01-17,13:00,-999
2015-01-17,14:00,-999
2015-01-17,15:00,-999
2015-01-17,16:00,868.35
2015-01-17,17:00,896.57
2015-01-17,18:00,915.01
2015-01-17,19:00,924.78
2015-01-17,20:00,928.03
2015-01-17,21:00,933.46
2015-01-17,22:00,933.46
2015-01-17,23:00,934.54
2015-01-18,00:00,-999
2015-01-18,01:00,933.46
2015-01-18,02:00,933.46
2015-01-18,03:00,932.37
2015-01-18,04:00,933.46
2015-01-18,05:00,934.54
2015-01-18,06:00,935.63
2015-01-18,07:00,935.63
2015-01-18,08:00,932.37
2015-01-18,09:00,910.67
2015-01-18,10:00,905.25
2015-01-18,11:00,856.42
2015-01-18,12:00,850.99
2015-01-18,13:00,856.42
2015-01-18,14:00,-999
2015-01-18,15:00,-999
2015-01-18,16:00,-999
2015-01-18,17:00,-999
2015-01-18,18:00,884.63
2015-01-18,19:00,923.69
2015-01-18,20:00,926.95
2015-01-18,21:00,930.2
2015-01-18,22:00,932.37
2015-01-18,23:00,934.54
2015-01-19,00:00,932.37
2015-01-19,01:00,931.29
2015-01-19,02:00,933.46
2015-01-19,03:00,932.37
2015-01-19,04:00,933.46
2015-01-19,05:00,933.46
2015-01-19,06:00,933.46
2015-01-19,07:00,935.63
2015-01-19,08:00,936.71
2015-01-19,09:00,912.84
2015-01-19,10:00,887.89
2015-01-19,11:00,853.16
2015-01-19,12:00,855.33
2015-01-19,13:00,-999
2015-01-19,14:00,-999
2015-01-19,15:00,-999
2015-01-19,16:00,860.76
2015-01-19,17:00,885.71
2015-01-19,18:00,900.91
2015-01-19,19:00,913.93
2015-01-19,20:00,929.12
2015-01-19,21:00,931.29
2015-01-19,22:00,932.37
2015-01-19,23:00,932.37
2015-01-20,00:00,-999
2015-01-20,01:00,933.46
2015-01-20,02:00,931.29
2015-01-20,03:00,928.03
2015-01-20,04:00,930.2
2015-01-20,05:00,934.54
2015-01-20,06:00,936.71
2015-01-20,07:00,938.88
2015-01-20,08:00,943.22
2015-01-20,09:00,924.78
2015-01-20,10:00,910.67
2015-01-20,11:00,895.48
2015-01-20,12:00,882.46
2015-01-20,13:00,870.52
2015-01-20,14:00,-999
2015-01-20,15:00,-999
2015-01-20,16:00,-999
2015-01-20,17:00,888.97
2015-01-20,18:00,913.93
2015-01-20,19:00,926.95
2015-01-20,20:00,923.69
2015-01-20,21:00,926.95
2015-01-20,22:00,928.03
2015-01-20,23:00,930.2
2015-01-21,00:00,926.95
2015-01-21,01:00,924.78
2015-01-21,02:00,929.12
2015-01-21,03:00,928.03
2015-01-21,04:00,928.03
2015-01-21,05:00,934.54
2015-01-21,06:00,934.54
2015-01-21,07:00,936.71
2015-01-21,08:00,936.71
2015-01-21,09:00,931.29
2015-01-21,10:00,915.01
2015-01-21,11:00,901.99
2015-01-21,12:00,898.74
2015-01-21,13:00,887.89
2015-01-21,14:00,864.01
2015-01-21,15:00,-999
2015-01-21,16:00,-999
2015-01-21,17:00,854.25
2015-01-21,18:00,898.74
2015-01-21,19:00,925.86
2015-01-21,20:00,925.86
2015-01-21,21:00,929.12
2015-01-21,22:00,931.29
2015-01-21,23:00,932.37
2015-01-22,00:00,936.71
2015-01-22,01:00,943.22
2015-01-22,02:00,933.46
2015-01-22,03:00,932.37
2015-01-22,04:00,933.46
2015-01-22,05:00,933.46
2015-01-22,06:00,933.46
2015-01-22,07:00,934.54
2015-01-22,08:00,935.63
2015-01-22,09:00,931.29
2015-01-22,10:00,920.44
2015-01-22,11:00,897.65
2015-01-22,12:00,897.65
2015-01-22,13:00,874.86
2015-01-22,14:00,857.5
2015-01-22,15:00,860.76
2015-01-22,16:00,-999
2015-01-22,17:00,870.52
2015-01-22,18:00,912.84
2015-01-22,19:00,920.44
2015-01-22,20:00,925.86
2015-01-22,21:00,928.03
2015-01-22,22:00,929.12
2015-01-22,23:00,942.14
2015-01-23,00:00,957.33
2015-01-23,01:00,964.93
2015-01-23,02:00,966.01
2015-01-23,03:00,958.41
2015-01-23,04:00,963.84
2015-01-23,05:00,966.01
2015-01-23,06:00,967.1
2015-01-23,07:00,969.27
2015-01-23,08:00,958.41
2015-01-23,09:00,948.65
2015-01-23,10:00,934.54
2015-01-23,11:00,922.61
2015-01-23,12:00,901.99
2015-01-23,13:00,871.61
2015-01-23,14:00,855.33
2015-01-23,15:00,869.44
2015-01-23,16:00,867.27
2015-01-23,17:00,897.65
2015-01-23,18:00,926.95
2015-01-23,19:00,918.27
2015-01-23,20:00,921.52
2015-01-23,21:00,929.12
2015-01-23,22:00,930.2
2015-01-23,23:00,932.37
2015-01-24,00:00,933.46
2015-01-24,01:00,933.46
2015-01-24,02:00,934.54
2015-01-24,03:00,934.54
2015-01-24,04:00,935.63
2015-01-24,05:00,934.54
2015-01-24,06:00,935.63
2015-01-24,07:00,936.71
2015-01-24,08:00,937.8
2015-01-24,09:00,931.29
2015-01-24,10:00,911.76
2015-01-24,11:00,888.97
2015-01-24,12:00,883.54
2015-01-24,13:00,864.01
2015-01-24,14:00,868.35
2015-01-24,15:00,-999
2015-01-24,16:00,-999
2015-01-24,17:00,-999
2015-01-24,18:00,890.06
2015-01-24,19:00,912.84
2015-01-24,20:00,930.2
2015-01-24,21:00,926.95
2015-01-24,22:00,929.12
2015-01-24,23:00,929.12
2015-01-25,00:00,931.29
2015-01-25,01:00,930.2
2015-01-25,02:00,931.29
2015-01-25,03:00,930.2
2015-01-25,04:00,931.29
2015-01-25,05:00,931.29
2015-01-25,06:00,931.29
2015-01-25,07:00,934.54
2015-01-25,08:00,933.46
2015-01-25,09:00,932.37
2015-01-25,10:00,921.52
2015-01-25,11:00,905.25
2015-01-25,12:00,890.06
2015-01-25,13:00,873.78
2015-01-25,14:00,-999
2015-01-25,15:00,-999
2015-01-25,16:00,-999
2015-01-25,17:00,-999
2015-01-25,18:00,-999
2015-01-25,19:00,885.71
2015-01-25,20:00,901.99
2015-01-25,21:00,910.67
2015-01-25,22:00,918.27
2015-01-25,23:00,918.27
2015-01-26,00:00,-999
2015-01-26,01:00,926.95
2015-01-26,02:00,-999
2015-01-26,03:00,-999
2015-01-26,04:00,-999
2015-01-26,05:00,-999
2015-01-26,06:00,-999
2015-01-26,07:00,-999
2015-01-26,08:00,-999
2015-01-26,09:00,-999
2015-01-26,10:00,-999
2015-01-26,11:00,-999
2015-01-26,12:00,874.86
2015-01-26,13:00,855.33
2015-01-26,14:00,-999
2015-01-26,15:00,-999
2015-01-26,16:00,-999
2015-01-26,17:00,-999
2015-01-26,18:00,-999
2015-01-26,19:00,892.23
2015-01-26,20:00,879.2
2015-01-26,21:00,908.5
2015-01-26,22:00,920.44
2015-01-26,23:00,915.01
2015-01-27,00:00,924.78
2015-01-27,01:00,923.69
2015-01-27,02:00,926.95
2015-01-27,03:00,928.03
2015-01-27,04:00,926.95
2015-01-27,05:00,949.73
2015-01-27,06:00,960.58
2015-01-27,07:00,963.84
2015-01-27,08:00,952.99
2015-01-27,09:00,946.48
2015-01-27,10:00,928.03
2015-01-27,11:00,899.82
2015-01-27,12:00,877.03
2015-01-27,13:00,859.67
2015-01-27,14:00,-999
2015-01-27,15:00,-999
2015-01-27,16:00,-999
2015-01-27,17:00,-999
2015-01-27,18:00,892.23
2015-01-27,19:00,909.59
2015-01-27,20:00,895.48
2015-01-27,21:00,911.76
2015-01-27,22:00,922.61
2015-01-27,23:00,924.78
2015-01-28,00:00,924.78
2015-01-28,01:00,913.93
2015-01-28,02:00,924.78
2015-01-28,03:00,926.95
2015-01-28,04:00,929.12
2015-01-28,05:00,929.12
2015-01-28,06:00,932.37
2015-01-28,07:00,932.37
2015-01-28,08:00,933.46
2015-01-28,09:00,929.12
2015-01-28,10:00,918.27
2015-01-28,11:00,897.65
2015-01-28,12:00,882.46
2015-01-28,13:00,869.44
2015-01-28,14:00,-999
2015-01-28,15:00,-999
2015-01-28,16:00,-999
2015-01-28,17:00,-999
2015-01-28,18:00,871.61
2015-01-28,19:00,897.65
2015-01-28,20:00,911.76
2015-01-28,21:00,911.76
2015-01-28,22:00,911.76
2015-01-28,23:00,919.35
2015-01-29,00:00,920.44
2015-01-29,01:00,920.44
2015-01-29,02:00,921.52
2015-01-29,03:00,952.99
2015-01-29,04:00,960.58
2015-01-29,05:00,964.93
2015-01-29,06:00,969.27
2015-01-29,07:00,969.27
2015-01-29,08:00,962.75
2015-01-29,09:00,957.33
2015-01-29,10:00,942.14
2015-01-29,11:00,928.03
2015-01-29,12:00,892.23
2015-01-29,13:00,868.35
2015-01-29,14:00,-999
2015-01-29,15:00,-999
2015-01-29,16:00,-999
2015-01-29,17:00,-999
2015-01-29,18:00,856.42
2015-01-29,19:00,895.48
2015-01-29,20:00,893.31
2015-01-29,21:00,906.33
2015-01-29,22:00,935.63
2015-01-29,23:00,941.05
2015-01-30,00:00,941.05
2015-01-30,01:00,937.8
2015-01-30,02:00,936.71
2015-01-30,03:00,948.65
2015-01-30,04:00,943.22
2015-01-30,05:00,943.22
2015-01-30,06:00,944.31
2015-01-30,07:00,945.39
2015-01-30,08:00,944.31
2015-01-30,09:00,937.8
2015-01-30,10:00,932.37
2015-01-30,11:00,910.67
2015-01-30,12:00,893.31
2015-01-30,13:00,884.63
2015-01-30,14:00,868.35
2015-01-30,15:00,-999
2015-01-30,16:00,-999
2015-01-30,17:00,-999
2015-01-30,18:00,907.42
2015-01-30,19:00,925.86
2015-01-30,20:00,934.54
2015-01-30,21:00,936.71
2015-01-30,22:00,941.05
2015-01-30,23:00,941.05
2015-01-31,00:00,943.22
2015-01-31,01:00,941.05
2015-01-31,02:00,942.14
2015-01-31,03:00,941.05
2015-01-31,04:00,942.14
2015-01-31,05:00,942.14
2015-01-31,06:00,944.31
2015-01-31,07:00,944.31
2015-01-31,08:00,942.14
2015-01-31,09:00,941.05
2015-01-31,10:00,921.52
2015-01-31,11:00,901.99
2015-01-31,12:00,870.52
2015-01-31,13:00,854.25
2015-01-31,14:00,-999
2015-01-31,15:00,-999
2015-01-31,16:00,-999
2015-01-31,17:00,856.42
2015-01-31,18:00,874.86
2015-01-31,19:00,904.16
2015-01-31,20:00,921.52
2015-01-31,21:00,918.27
2015-01-31,22:00,928.03
2015-01-31,23:00,934.54
